Tracking 25370 objects as of 25-Jan-2022
HD Live streaming from Space Station
objects crossing your sky now

STARLINK-3322

Track STARLINK-3322 now!
10-day predictions
STARLINK-3322 is classified as:


NORAD ID: 50838
Int'l Code: 2022-001AM
Perigee: 355.3 km
Apogee: 357.5 km
Inclination: 53.2 °
Period: 91.5 minutes
Semi major axis: 6727 km
RCS: Unknown
Launch date: January 6, 2022
Source: United States (US)
Launch site: AIR FORCE EASTERN TEST RANGE (AFETR)
aabbcc
Your satellite tracking list
Your tracking list is empty




NASA's NSSDC Master Catalog

Two Line Element Set (TLE):
1 50838U 22001AM  22024.58334491 -.00435185  00000-0 -32331-2 0  9998
2 50838  53.2155 111.4846 0001623  51.6565   1.2934 15.73387000  3367
Source of the keplerian elements: AFSPC